sat.trackr.live / text

‹ back to catalog

STARLINK-4414

NORAD 53213 · 2022-084AA

PAYLOAD ACTIVE UNKNOWN

§ Identity

Operator
Country
US
Launch date
2022-07-22
Launch site
AFWTR
Launch vehicle
Mass (kg)
RCS (m²)

Purposes: comms

External: N2YO · Heavens-Above · Gunter

§ Orbital elements

Epoch: 2026-09-19T23:07:52.656096Z

Period
93.91 min
Inclination
97.2838°
Eccentricity
0.0001824
Mean motion
15.33429769 rev/d
Perigee alt
464.3 km
Apogee alt
466.8 km
Semi-major
6,843.7 km
B*
6.1672e-5
RAAN
317.8332°
Arg perigee
95.3385°
Mean anomaly
264.8066°
Rev number
22,913

§ Raw data

STARLINK-44141 53213U 22084AA  26262.96380389  .00001915  00000+0  61672-4 0  99952 53213  97.2838 317.8332 0001824  95.3385 264.8066 15.33429769229136

JSON: /api/v1/satellites/53213 · /tle

For live sub-satellite position, see the globe view (requires WebGL).

§ Visibility from observer

Set your observer location to see the next 7 days of passes ≥ 10°. The values pass through the URL so the page stays shareable.

No JS? Fill the form by hand. The geolocation button needs JavaScript.